• In United Kingdom
  • List of Countries
  • For 7 days
  • Water Temperature
  • Satellite Maps
  • Weather Map
  • Weather Widgets
  • user-avatar
    Login

    Hourly Weather Chernyy Dvor

    Today, 21 September, Friday

    Time Temperature Precipitation Wind Pressure Humidity
    00:00 +15°C° 0 mm 2 mps 747 mmHg 86%
    01:00 +15°C° 0 mm 2 mps 747 mmHg 88%
    02:00 +15°C° 0 mm 2 mps 747 mmHg 90%
    03:00 +15°C° 0 mm 2 mps 747 mmHg 91%
    04:00 +15°C° 0 mm 2 mps 747 mmHg 92%
    05:00 +15°C° 0 mm 2 mps 747 mmHg 94%
    06:00 +16°C° 0 mm 2 mps 747 mmHg 89%
    07:00 +17°C° 0 mm 2 mps 747 mmHg 84%
    08:00 +19°C° 0 mm 3 mps 747 mmHg 79%
    09:00 +21°C° 0 mm 3 mps 747 mmHg 73%
    10:00 +22°C° 0 mm 3 mps 747 mmHg 66%
    11:00 +25°C° 0 mm 3 mps 747 mmHg 60%
    12:00 +26°C° 0 mm 3 mps 747 mmHg 57%
    13:00 +27°C° 0 mm 3 mps 747 mmHg 54%
    14:00 +27°C° 0 mm 3 mps 747 mmHg 52%
    15:00 +26°C° 0 mm 3 mps 746 mmHg 57%
    16:00 +25°C° 0 mm 3 mps 746 mmHg 63%
    17:00 +24°C° 0 mm 2 mps 746 mmHg 68%
    18:00 +22°C° 0 mm 3 mps 746 mmHg 72%
    19:00 +20°C° 0 mm 3 mps 745 mmHg 76%
    20:00 +19°C° 0 mm 3 mps 745 mmHg 80%
    21:00 +18°C° 0 mm 3 mps 745 mmHg 78%
    22:00 +18°C° 0 mm 3 mps 745 mmHg 76%
    23:00 +18°C° 0 mm 3 mps 744 mmHg 75%

    Tomorrow, 22 September, Saturday

    Time Temperature Precipitation Wind Pressure Humidity
    00:00 +18°C° 0 mm 4 mps 744 mmHg 74%
    01:00 +18°C° 0 mm 4 mps 744 mmHg 73%
    02:00 +18°C° 0 mm 4 mps 743 mmHg 72%
    03:00 +17°C° 0 mm 4 mps 743 mmHg 72%
    04:00 +17°C° 0 mm 4 mps 742 mmHg 72%
    05:00 +17°C° 0 mm 4 mps 742 mmHg 72%
    06:00 +16°C° 0 mm 5 mps 741 mmHg 70%
    07:00 +17°C° 0 mm 5 mps 741 mmHg 67%
    08:00 +19°C° 0 mm 5 mps 741 mmHg 65%
    09:00 +19°C° 0.1 mm 5 mps 741 mmHg 64%
    10:00 +20°C° 0.1 mm 5 mps 741 mmHg 63%
    11:00 +21°C° 0.1 mm 5 mps 741 mmHg 62%
    12:00 +19°C° 0.1 mm 5 mps 741 mmHg 67%
    13:00 +17°C° 0.1 mm 4 mps 742 mmHg 71%
    14:00 +14°C° 0.1 mm 3 mps 742 mmHg 76%
    15:00 +13°C° 0.4 mm 3 mps 742 mmHg 80%
    16:00 +12°C° 0.4 mm 3 mps 742 mmHg 83%
    17:00 +11°C° 0.4 mm 3 mps 742 mmHg 87%
    18:00 +11°C° 1.1 mm 3 mps 742 mmHg 89%
    19:00 +10°C° 1.1 mm 3 mps 742 mmHg 91%
    20:00 +10°C° 1.1 mm 3 mps 743 mmHg 93%
    21:00 +10°C° 0.2 mm 3 mps 743 mmHg 93%
    22:00 +10°C° 0.2 mm 3 mps 743 mmHg 93%
    23:00 +10°C° 0.2 mm 3 mps 743 mmHg 93%

    Day after tomorrow, 23 September, Sunday

    Time Temperature Precipitation Wind Pressure Humidity
    00:00 +9°C° 0 mm 3 mps 742 mmHg 93%
    01:00 +9°C° 0 mm 2 mps 742 mmHg 94%
    02:00 +9°C° 0 mm 2 mps 742 mmHg 94%
    03:00 +9°C° 0 mm 2 mps 742 mmHg 95%
    04:00 +8°C° 0 mm 2 mps 742 mmHg 96%
    05:00 +8°C° 0 mm 2 mps 742 mmHg 96%
    06:00 +8°C° 0 mm 2 mps 741 mmHg 94%
    07:00 +9°C° 0 mm 2 mps 741 mmHg 92%
    08:00 +9°C° 0 mm 2 mps 741 mmHg 90%
    09:00 +10°C° 0 mm 3 mps 741 mmHg 82%
    10:00 +12°C° 0 mm 3 mps 741 mmHg 73%
    11:00 +13°C° 0 mm 4 mps 741 mmHg 64%
    12:00 +14°C° 0.2 mm 4 mps 741 mmHg 63%
    13:00 +14°C° 0.2 mm 4 mps 740 mmHg 62%
    14:00 +14°C° 0.2 mm 4 mps 740 mmHg 60%
    15:00 +13°C° 0.2 mm 4 mps 740 mmHg 66%
    16:00 +12°C° 0.2 mm 4 mps 740 mmHg 71%
    17:00 +11°C° 0.2 mm 3 mps 740 mmHg 77%
    18:00 +10°C° 0 mm 3 mps 740 mmHg 80%
    19:00 +9°C° 0 mm 3 mps 740 mmHg 84%
    20:00 +9°C° 0 mm 3 mps 741 mmHg 88%
    21:00 +8°C° 0 mm 3 mps 741 mmHg 89%
    22:00 +8°C° 0 mm 3 mps 741 mmHg 90%
    23:00 +8°C° 0 mm 3 mps 741 mmHg 91%

    24 September, Monday

    Time Temperature Precipitation Wind Pressure Humidity
    00:00 +7°C° 0 mm 3 mps 741 mmHg 92%
    01:00 +7°C° 0 mm 3 mps 741 mmHg 93%
    02:00 +7°C° 0 mm 3 mps 741 mmHg 94%
    03:00 +6°C° 0 mm 2 mps 741 mmHg 95%
    04:00 +6°C° 0 mm 2 mps 741 mmHg 96%
    05:00 +5°C° 0 mm 2 mps 740 mmHg 97%
    06:00 +6°C° 0 mm 2 mps 740 mmHg 95%
    07:00 +7°C° 0 mm 2 mps 740 mmHg 92%
    08:00 +8°C° 0 mm 2 mps 740 mmHg 89%
    09:00 +9°C° 0 mm 2 mps 739 mmHg 83%
    10:00 +10°C° 0 mm 3 mps 739 mmHg 78%
    11:00 +11°C° 0 mm 3 mps 739 mmHg 72%
    12:00 +11°C° 0.5 mm 3 mps 738 mmHg 75%
    13:00 +11°C° 0.5 mm 4 mps 737 mmHg 79%
    14:00 +10°C° 0.5 mm 4 mps 736 mmHg 82%
    15:00 +8°C° 1.8 mm 4 mps 735 mmHg 85%
    16:00 +8°C° 1.8 mm 5 mps 734 mmHg 88%
    17:00 +7°C° 1.8 mm 6 mps 733 mmHg 92%
    18:00 +7°C° 2.5 mm 6 mps 732 mmHg 92%
    19:00 +7°C° 2.5 mm 6 mps 731 mmHg 93%
    20:00 +7°C° 2.5 mm 6 mps 730 mmHg 94%
    21:00 +7°C° 2.4 mm 5 mps 729 mmHg 94%
    22:00 +7°C° 2.4 mm 5 mps 728 mmHg 94%
    23:00 +7°C° 2.4 mm 5 mps 727 mmHg 95%

    25 September, Tuesday

    Time Temperature Precipitation Wind Pressure Humidity
    00:00 +7°C° 3 mm 5 mps 727 mmHg 95%
    01:00 +7°C° 3 mm 5 mps 726 mmHg 95%
    02:00 +7°C° 3 mm 6 mps 726 mmHg 95%
    03:00 +7°C° 2.2 mm 6 mps 726 mmHg 94%
    04:00 +5°C° 2.2 mm 7 mps 726 mmHg 93%
    05:00 +5°C° 2.2 mm 7 mps 726 mmHg 92%
    06:00 +5°C° 2.1 mm 8 mps 727 mmHg 92%
    07:00 +5°C° 2.1 mm 8 mps 728 mmHg 91%
    08:00 +5°C° 2.1 mm 9 mps 728 mmHg 90%
    09:00 +5°C° 1.5 mm 9 mps 729 mmHg 90%
    10:00 +3°C° 1.5 mm 9 mps 730 mmHg 89%
    11:00 +3°C° 1.5 mm 9 mps 731 mmHg 88%
    12:00 +3°C° 0.9 mm 9 mps 732 mmHg 87%
    13:00 +3°C° 0.9 mm 9 mps 733 mmHg 86%
    14:00 +3°C° 0.9 mm 9 mps 734 mmHg 85%
    15:00 +4°C° 0.4 mm 8 mps 734 mmHg 82%
    16:00 +4°C° 0.4 mm 8 mps 735 mmHg 80%
    17:00 +4°C° 0.4 mm 7 mps 736 mmHg 78%
    18:00 +4°C° 0.1 mm 7 mps 736 mmHg 76%
    19:00 +3°C° 0.1 mm 6 mps 737 mmHg 75%
    20:00 +3°C° 0.1 mm 6 mps 737 mmHg 73%
    21:00 +3°C° 0 mm 6 mps 738 mmHg 73%
    22:00 +2°C° 0 mm 5 mps 738 mmHg 72%
    23:00 +2°C° 0 mm 5 mps 738 mmHg 71%

    26 September, Wednesday

    Time Temperature Precipitation Wind Pressure Humidity
    00:00 +2°C° 0 mm 5 mps 739 mmHg 71%
    01:00 +2°C° 0 mm 5 mps 739 mmHg 71%
    02:00 +1°C° 0 mm 5 mps 740 mmHg 70%
    03:00 +1°C° 0 mm 5 mps 740 mmHg 71%
    04:00 +1°C° 0 mm 5 mps 740 mmHg 71%
    05:00 +1°C° 0 mm 5 mps 741 mmHg 71%
    06:00 +1°C° 0 mm 6 mps 741 mmHg 69%
    07:00 +2°C° 0 mm 6 mps 742 mmHg 66%
    08:00 +3°C° 0 mm 6 mps 742 mmHg 63%
    09:00 +4°C° 0 mm 6 mps 743 mmHg 59%
    10:00 +5°C° 0 mm 6 mps 744 mmHg 56%
    11:00 +7°C° 0 mm 6 mps 744 mmHg 52%
    12:00 +7°C° 0 mm 6 mps 745 mmHg 53%
    13:00 +7°C° 0 mm 6 mps 745 mmHg 53%
    14:00 +7°C° 0 mm 6 mps 746 mmHg 54%
    15:00 +7°C° 0 mm 5 mps 746 mmHg 58%
    16:00 +6°C° 0 mm 4 mps 747 mmHg 61%
    17:00 +7°C° 0 mm 3 mps 748 mmHg 65%
    18:00 +5°C° 0 mm 3 mps 748 mmHg 68%
    19:00 +4°C° 0 mm 3 mps 749 mmHg 70%
    20:00 +3°C° 0 mm 3 mps 749 mmHg 73%
    21:00 +4°C° 0 mm 2 mps 750 mmHg 75%
    22:00 +3°C° 0 mm 2 mps 750 mmHg 78%
    23:00 +2°C° 0 mm 2 mps 750 mmHg 80%
    Show more